Year,Month,Day,Hour,Minute,Value (Times are PST for windspeed in km/hr)
2015,06,10,00,00,25.30
2015,06,10,00,01,24.80
2015,06,10,00,02,25.30
2015,06,10,00,03,25.70
2015,06,10,00,04,25.70
2015,06,10,00,05,27.10
2015,06,10,00,06,27.70
2015,06,10,00,07,28.10
2015,06,10,00,08,28.50
2015,06,10,00,09,29.20
2015,06,10,00,10,28.90
2015,06,10,00,11,29.00
2015,06,10,00,12,28.20
2015,06,10,00,13,28.00
2015,06,10,00,14,28.10
2015,06,10,00,15,27.20
2015,06,10,00,16,26.00
2015,06,10,00,17,25.60
2015,06,10,00,18,26.60
2015,06,10,00,19,26.20
2015,06,10,00,20,26.70
2015,06,10,00,21,26.60
2015,06,10,00,22,26.10
2015,06,10,00,23,26.80
2015,06,10,00,24,26.50
2015,06,10,00,25,26.50
2015,06,10,00,26,26.80
2015,06,10,00,27,26.70
2015,06,10,00,28,27.60
2015,06,10,00,29,27.50
2015,06,10,00,30,26.30
2015,06,10,00,31,26.50
2015,06,10,00,32,27.40
2015,06,10,00,33,26.70
2015,06,10,00,34,27.00
2015,06,10,00,35,26.40
2015,06,10,00,36,25.40
2015,06,10,00,37,25.00
2015,06,10,00,38,25.30
2015,06,10,00,39,25.20
2015,06,10,00,40,24.30
2015,06,10,00,41,22.50
2015,06,10,00,42,22.30
2015,06,10,00,43,20.10
2015,06,10,00,44,19.00
2015,06,10,00,45,17.50
2015,06,10,00,46,19.60
2015,06,10,00,47,17.90
2015,06,10,00,48,16.60
2015,06,10,00,49,19.10
2015,06,10,00,50,19.10
2015,06,10,00,51,20.00
2015,06,10,00,52,18.90
2015,06,10,00,53,18.50
2015,06,10,00,54,18.30
2015,06,10,00,55,16.80
2015,06,10,00,56,15.10
2015,06,10,00,57,15.40
2015,06,10,00,58,14.00
2015,06,10,00,59,14.20
2015,06,10,01,00,15.40
2015,06,10,01,01,18.30
2015,06,10,01,02,18.50
2015,06,10,01,03,17.60
2015,06,10,01,04,15.90
2015,06,10,01,05,19.20
2015,06,10,01,06,19.10
2015,06,10,01,07,17.10
2015,06,10,01,08,20.50
2015,06,10,01,09,22.20
2015,06,10,01,10,21.90
2015,06,10,01,11,22.00
2015,06,10,01,12,22.10
2015,06,10,01,13,22.50
2015,06,10,01,14,22.10
2015,06,10,01,15,21.50
2015,06,10,01,16,21.90
2015,06,10,01,17,22.50
2015,06,10,01,18,22.50
2015,06,10,01,19,22.70
2015,06,10,01,20,21.70
2015,06,10,01,21,22.50
2015,06,10,01,22,21.50
2015,06,10,01,23,21.80
2015,06,10,01,24,21.00
2015,06,10,01,25,20.60
2015,06,10,01,26,20.80
2015,06,10,01,27,19.30
2015,06,10,01,28,18.70
2015,06,10,01,29,17.90
2015,06,10,01,30,16.50
2015,06,10,01,31,15.80
2015,06,10,01,32,14.90
2015,06,10,01,33,13.60
2015,06,10,01,34,14.20
2015,06,10,01,35,16.80
2015,06,10,01,36,17.00
2015,06,10,01,37,16.60
2015,06,10,01,38,17.60
2015,06,10,01,39,17.20
2015,06,10,01,40,11.90
2015,06,10,01,41,10.60
2015,06,10,01,42,12.70
2015,06,10,01,43,13.70
2015,06,10,01,44,10.90
2015,06,10,01,45,11.20
2015,06,10,01,46,11.10
2015,06,10,01,47,10.90
2015,06,10,01,48,11.40
2015,06,10,01,49,11.30
2015,06,10,01,50,10.60
2015,06,10,01,51,12.10
2015,06,10,01,52,12.90
2015,06,10,01,53,12.90
2015,06,10,01,54,12.90
2015,06,10,01,55,12.90
2015,06,10,01,56,12.90
2015,06,10,01,57,12.90
2015,06,10,01,58,12.90
2015,06,10,01,59,12.90
2015,06,10,02,00,12.90
2015,06,10,02,01,12.90
2015,06,10,03,09,3.40
2015,06,10,03,10,3.90
2015,06,10,03,11,2.50
2015,06,10,03,12,2.20
2015,06,10,03,13,0.50
2015,06,10,03,14,0.00
2015,06,10,03,15,0.20
2015,06,10,03,16,0.00
2015,06,10,03,17,0.00
2015,06,10,03,18,0.00
2015,06,10,03,19,0.00
2015,06,10,03,20,0.00
2015,06,10,03,21,0.00
2015,06,10,03,22,0.00
2015,06,10,03,23,0.00
2015,06,10,03,24,0.00
2015,06,10,03,25,0.00
2015,06,10,03,26,0.00
2015,06,10,03,27,0.00
2015,06,10,03,28,0.00
2015,06,10,03,29,0.00
2015,06,10,03,30,0.00
2015,06,10,03,31,0.00
2015,06,10,03,32,0.00
2015,06,10,03,33,0.40
2015,06,10,03,34,3.40
2015,06,10,03,35,3.50
2015,06,10,03,36,3.20
2015,06,10,03,37,3.20
2015,06,10,03,38,3.20
2015,06,10,03,39,3.20
2015,06,10,03,40,3.20
2015,06,10,03,41,2.60
2015,06,10,03,42,0.00
2015,06,10,03,43,0.00
2015,06,10,03,44,1.20
2015,06,10,03,45,2.30
2015,06,10,03,46,5.60
2015,06,10,03,47,5.30
2015,06,10,03,48,5.60
2015,06,10,03,49,5.90
2015,06,10,03,50,6.40
2015,06,10,03,51,3.40
2015,06,10,03,52,2.40
2015,06,10,03,53,1.30
2015,06,10,03,54,2.60
2015,06,10,03,55,2.70
2015,06,10,03,56,3.70
2015,06,10,03,57,2.50
2015,06,10,03,58,3.50
2015,06,10,03,59,3.60
2015,06,10,04,00,3.70
2015,06,10,04,01,4.50
2015,06,10,04,02,4.70
2015,06,10,04,03,4.10
2015,06,10,04,04,4.40
2015,06,10,04,05,5.50
2015,06,10,04,06,5.40
2015,06,10,04,07,5.60
2015,06,10,04,08,4.30
2015,06,10,04,09,3.50
2015,06,10,04,10,3.70
2015,06,10,04,11,4.10
2015,06,10,04,12,6.20
2015,06,10,04,13,6.30
2015,06,10,04,14,6.00
2015,06,10,04,15,4.90
2015,06,10,04,16,3.40
2015,06,10,04,17,2.90
2015,06,10,04,18,0.20
2015,06,10,04,19,0.00
2015,06,10,04,20,0.00
2015,06,10,04,21,0.00
2015,06,10,04,22,0.00
2015,06,10,04,23,0.00
2015,06,10,04,24,0.00
2015,06,10,04,25,0.00
2015,06,10,04,26,0.00
2015,06,10,04,27,0.00
2015,06,10,04,28,0.00
2015,06,10,04,29,0.00
2015,06,10,04,30,0.00
2015,06,10,04,31,0.80
2015,06,10,04,32,3.80
2015,06,10,04,33,4.50
2015,06,10,04,34,4.70
2015,06,10,04,35,4.50
2015,06,10,04,36,3.60
2015,06,10,04,37,2.30
2015,06,10,04,38,1.80
2015,06,10,04,39,0.00
2015,06,10,04,40,0.00
2015,06,10,04,41,0.60
2015,06,10,04,42,4.30
2015,06,10,04,43,4.70
2015,06,10,04,44,4.40
2015,06,10,04,45,4.00
2015,06,10,04,46,5.40
2015,06,10,04,47,6.40
2015,06,10,04,48,7.10
2015,06,10,04,49,7.90
2015,06,10,04,50,8.00
2015,06,10,04,51,7.70
2015,06,10,04,52,7.90
2015,06,10,04,53,8.20
2015,06,10,04,54,8.10
2015,06,10,04,55,7.40
2015,06,10,04,56,7.40
2015,06,10,04,57,8.90
2015,06,10,04,58,9.20
2015,06,10,04,59,9.50
2015,06,10,05,00,8.20
2015,06,10,05,01,8.10
2015,06,10,05,02,7.20
2015,06,10,05,03,8.00
2015,06,10,05,04,8.40
2015,06,10,05,05,7.80
2015,06,10,05,06,8.60
2015,06,10,05,07,10.40
2015,06,10,05,08,9.80
2015,06,10,05,09,10.90
2015,06,10,05,10,11.80
2015,06,10,05,11,12.10
2015,06,10,05,12,13.00
2015,06,10,05,13,12.50
2015,06,10,05,14,12.50
2015,06,10,05,15,12.50
2015,06,10,05,16,12.90
2015,06,10,05,17,13.00
2015,06,10,05,18,12.80
2015,06,10,05,19,12.50
2015,06,10,05,20,12.30
2015,06,10,05,21,13.70
2015,06,10,05,22,13.10
2015,06,10,05,23,13.70
2015,06,10,05,24,14.10
2015,06,10,05,25,13.80
2015,06,10,05,26,13.80
2015,06,10,05,27,13.70
2015,06,10,05,28,12.50
2015,06,10,05,29,11.90
2015,06,10,05,30,11.30
2015,06,10,05,31,11.30
2015,06,10,05,32,10.50
2015,06,10,05,33,9.50
2015,06,10,05,34,10.10
2015,06,10,05,35,10.30
2015,06,10,05,36,10.10
2015,06,10,05,37,10.20
2015,06,10,05,38,10.50
2015,06,10,05,39,11.60
2015,06,10,05,40,12.90
2015,06,10,05,41,12.60
2015,06,10,05,42,11.50
2015,06,10,05,43,12.50
2015,06,10,05,44,12.00
2015,06,10,05,45,11.50
2015,06,10,05,46,11.80
2015,06,10,05,47,10.40
2015,06,10,05,48,11.60
2015,06,10,05,49,10.10
2015,06,10,05,50,10.30
2015,06,10,05,51,9.70
2015,06,10,05,52,8.80
2015,06,10,05,53,8.10
2015,06,10,05,54,7.10
2015,06,10,05,55,6.70
2015,06,10,05,56,7.20
2015,06,10,05,57,5.60
2015,06,10,05,58,5.40
2015,06,10,05,59,3.70
2015,06,10,06,00,3.20
2015,06,10,06,01,3.10
2015,06,10,06,02,3.90
2015,06,10,06,03,4.00
2015,06,10,06,04,4.00
2015,06,10,06,05,5.60
2015,06,10,06,06,5.10
2015,06,10,06,07,5.50
2015,06,10,06,08,5.20
2015,06,10,06,09,5.20
2015,06,10,06,10,4.70
2015,06,10,06,11,3.90
2015,06,10,06,12,0.40
2015,06,10,06,13,3.20
2015,06,10,06,14,4.50
2015,06,10,06,15,5.10
2015,06,10,06,16,4.40
2015,06,10,06,17,5.20
2015,06,10,06,18,7.20
2015,06,10,06,19,6.00
2015,06,10,06,20,6.80
2015,06,10,06,21,5.80
2015,06,10,06,22,5.30
2015,06,10,06,23,4.70
2015,06,10,06,24,3.40
2015,06,10,06,25,4.20
2015,06,10,06,26,4.10
2015,06,10,06,27,3.20
2015,06,10,06,28,2.30
2015,06,10,06,29,2.10
2015,06,10,06,30,1.50
2015,06,10,06,31,0.00
2015,06,10,06,32,0.40
2015,06,10,06,33,2.90
2015,06,10,06,34,3.80
2015,06,10,06,35,5.00
2015,06,10,06,36,5.60
2015,06,10,06,37,5.90
2015,06,10,06,38,5.80
2015,06,10,06,39,6.40
2015,06,10,06,40,6.80
2015,06,10,06,41,6.60
2015,06,10,06,42,6.40
2015,06,10,06,43,7.00
2015,06,10,06,44,7.10
2015,06,10,06,45,7.20
2015,06,10,06,46,7.20
2015,06,10,06,47,6.80
2015,06,10,06,48,6.40
2015,06,10,06,49,7.10
2015,06,10,06,50,7.40
2015,06,10,06,51,6.60
2015,06,10,06,52,6.30
2015,06,10,06,53,5.60
2015,06,10,06,54,5.60
2015,06,10,06,55,5.60
2015,06,10,06,56,5.70
2015,06,10,06,57,5.80
2015,06,10,06,58,6.10
2015,06,10,06,59,7.10
2015,06,10,07,00,8.30
2015,06,10,07,01,9.40
2015,06,10,07,02,9.30
2015,06,10,07,03,9.00
2015,06,10,07,04,9.20
2015,06,10,07,05,8.10
2015,06,10,07,06,7.70
2015,06,10,07,07,8.20
2015,06,10,07,08,8.90
2015,06,10,07,09,9.30
2015,06,10,07,10,9.60
2015,06,10,07,11,9.50
2015,06,10,07,12,8.80
2015,06,10,07,13,9.00
2015,06,10,07,14,9.80
2015,06,10,07,15,10.60
2015,06,10,07,16,9.80
2015,06,10,07,17,9.70
2015,06,10,07,18,10.50
2015,06,10,07,19,11.50
2015,06,10,07,20,11.90
2015,06,10,07,21,11.60
2015,06,10,07,22,11.40
2015,06,10,07,23,11.60
2015,06,10,07,24,12.20
2015,06,10,07,25,11.90
2015,06,10,07,26,11.50
2015,06,10,07,27,11.10
2015,06,10,07,28,10.70
2015,06,10,07,29,10.40
2015,06,10,07,30,10.90
2015,06,10,07,31,10.90
2015,06,10,07,32,10.50
2015,06,10,07,33,10.40
2015,06,10,07,34,11.00
2015,06,10,07,35,11.70
2015,06,10,07,36,11.90
2015,06,10,07,37,12.50
2015,06,10,07,38,12.80
2015,06,10,07,39,13.10
2015,06,10,07,40,14.80
2015,06,10,07,41,14.90
2015,06,10,07,42,14.20
2015,06,10,07,43,13.60
2015,06,10,07,44,12.90
2015,06,10,07,45,13.70
2015,06,10,07,46,13.40
2015,06,10,07,47,12.60
2015,06,10,07,48,13.20
2015,06,10,07,49,13.40
2015,06,10,07,50,12.80
2015,06,10,07,51,13.20
2015,06,10,07,52,12.70
2015,06,10,07,53,11.40
2015,06,10,07,54,11.00
2015,06,10,07,55,11.10
2015,06,10,07,56,11.40
2015,06,10,07,57,11.40
2015,06,10,07,58,11.80
2015,06,10,07,59,11.90
2015,06,10,08,00,11.70
2015,06,10,08,01,11.60
2015,06,10,08,02,11.90
2015,06,10,08,03,12.20
2015,06,10,08,04,12.20
2015,06,10,08,05,13.00
2015,06,10,08,06,12.80
2015,06,10,08,07,13.00
2015,06,10,08,08,12.80
2015,06,10,08,09,12.80
2015,06,10,08,10,12.30
2015,06,10,08,11,12.20
2015,06,10,08,12,11.50
2015,06,10,08,13,11.40
2015,06,10,08,14,10.80
2015,06,10,08,15,10.50
2015,06,10,08,16,9.90
2015,06,10,08,17,9.70
2015,06,10,08,18,9.70
2015,06,10,08,19,10.10
2015,06,10,08,20,10.10
2015,06,10,08,21,10.70
2015,06,10,08,22,10.20
2015,06,10,08,23,10.50
2015,06,10,08,24,10.20
2015,06,10,08,25,9.70
2015,06,10,08,26,8.90
2015,06,10,08,27,9.00
2015,06,10,08,28,7.30
2015,06,10,08,29,5.50
2015,06,10,08,30,4.70
2015,06,10,08,31,4.30
2015,06,10,08,32,4.90
2015,06,10,08,33,4.00
2015,06,10,08,34,4.70
2015,06,10,08,35,4.80
2015,06,10,08,36,4.40
2015,06,10,08,37,5.10
2015,06,10,08,38,5.10
2015,06,10,08,39,4.80
2015,06,10,08,40,4.30
2015,06,10,08,41,3.70
2015,06,10,08,42,3.60
2015,06,10,08,43,4.00
2015,06,10,08,44,2.90
2015,06,10,08,45,2.70
2015,06,10,08,46,2.60
2015,06,10,08,47,2.00
2015,06,10,08,48,1.20
2015,06,10,08,49,1.50
2015,06,10,08,50,2.40
2015,06,10,08,51,0.70
2015,06,10,08,52,0.00
2015,06,10,08,53,2.10
2015,06,10,08,54,2.90
2015,06,10,08,55,3.30
2015,06,10,08,56,0.90
2015,06,10,08,57,0.30
2015,06,10,08,58,0.00
2015,06,10,08,59,0.00
2015,06,10,09,00,1.00
2015,06,10,09,01,2.40
2015,06,10,09,02,1.60
2015,06,10,09,03,0.00
2015,06,10,09,04,0.00
2015,06,10,09,05,0.20
2015,06,10,09,06,0.00
2015,06,10,09,07,0.10
2015,06,10,09,08,1.70
2015,06,10,09,09,0.30
2015,06,10,09,10,0.00
2015,06,10,09,11,0.00
2015,06,10,09,12,0.00
2015,06,10,09,13,0.00
2015,06,10,09,14,0.00
2015,06,10,09,15,0.00
2015,06,10,09,16,0.00
2015,06,10,09,17,0.00
2015,06,10,09,18,0.00
2015,06,10,09,19,0.00
2015,06,10,09,20,0.00
2015,06,10,09,21,0.00
2015,06,10,09,22,0.00
2015,06,10,09,23,0.00
2015,06,10,09,24,0.00
2015,06,10,09,25,0.00
2015,06,10,09,26,0.00
2015,06,10,09,27,0.00
2015,06,10,09,28,0.00
2015,06,10,09,29,0.00
2015,06,10,09,30,0.00
2015,06,10,09,31,0.00
2015,06,10,09,32,0.00
2015,06,10,09,33,0.00
2015,06,10,09,34,0.00
2015,06,10,09,35,0.00
2015,06,10,09,36,0.00
2015,06,10,09,37,0.00
2015,06,10,09,38,0.00
2015,06,10,09,39,0.00
2015,06,10,09,40,0.00
2015,06,10,09,41,0.00
2015,06,10,09,42,0.00
2015,06,10,09,43,0.00
2015,06,10,09,44,0.00
2015,06,10,09,45,0.00
2015,06,10,09,46,0.00
2015,06,10,09,47,0.00
2015,06,10,09,48,1.30
2015,06,10,09,49,1.80
2015,06,10,09,50,2.30
2015,06,10,09,51,2.50
2015,06,10,09,52,2.50
2015,06,10,09,53,1.50
2015,06,10,09,54,3.40
2015,06,10,09,55,3.00
2015,06,10,09,56,2.10
2015,06,10,09,57,2.90
2015,06,10,09,58,4.30
2015,06,10,09,59,5.20
2015,06,10,10,00,4.80
2015,06,10,10,01,5.10
2015,06,10,10,02,5.30
2015,06,10,10,03,5.50
2015,06,10,10,04,4.90
2015,06,10,10,05,4.70
2015,06,10,10,06,4.10
2015,06,10,10,07,3.70
2015,06,10,10,08,3.90
2015,06,10,10,09,4.50
2015,06,10,10,10,3.90
2015,06,10,10,11,3.70
2015,06,10,10,12,4.30
2015,06,10,10,13,3.70
2015,06,10,10,14,4.30
2015,06,10,10,15,3.70
2015,06,10,10,16,3.30
2015,06,10,10,17,2.70
2015,06,10,10,18,2.90
2015,06,10,10,19,2.20
2015,06,10,10,20,1.50
2015,06,10,10,21,2.20
2015,06,10,10,22,3.50
2015,06,10,10,23,4.30
2015,06,10,10,24,4.80
2015,06,10,10,25,5.00
2015,06,10,10,26,5.00
2015,06,10,10,27,4.60
2015,06,10,10,28,5.20
2015,06,10,10,29,4.50
2015,06,10,10,30,4.00
2015,06,10,10,31,5.10
2015,06,10,10,32,4.80
2015,06,10,10,33,5.00
2015,06,10,10,34,4.50
2015,06,10,10,35,4.60
2015,06,10,10,36,5.10
2015,06,10,10,37,5.10
2015,06,10,10,38,5.70
2015,06,10,10,39,6.40
2015,06,10,10,40,6.80
2015,06,10,10,41,6.80
2015,06,10,10,42,6.00
2015,06,10,10,43,6.40
2015,06,10,10,44,6.30
2015,06,10,10,45,6.10
2015,06,10,10,46,6.50
2015,06,10,10,47,6.50
2015,06,10,10,48,7.20
2015,06,10,10,49,7.10
2015,06,10,10,50,6.60
2015,06,10,10,51,6.40
2015,06,10,10,52,6.40
2015,06,10,10,53,5.80
2015,06,10,10,54,6.00
2015,06,10,10,55,6.40
2015,06,10,10,56,6.30
2015,06,10,10,57,7.00
2015,06,10,10,58,6.50
2015,06,10,10,59,6.30
2015,06,10,11,00,6.30
2015,06,10,11,01,6.20
2015,06,10,11,02,5.10
2015,06,10,11,03,5.20
2015,06,10,11,04,5.50
2015,06,10,11,05,5.10
2015,06,10,11,06,4.70
2015,06,10,11,07,4.40
2015,06,10,11,08,4.20
2015,06,10,11,09,4.40
2015,06,10,11,10,4.30
2015,06,10,11,11,3.80
2015,06,10,11,12,4.30
2015,06,10,11,13,4.40
2015,06,10,11,14,4.50
2015,06,10,11,15,3.20
2015,06,10,11,16,3.40
2015,06,10,11,17,3.10
2015,06,10,11,18,2.40
2015,06,10,11,19,2.70
2015,06,10,11,20,3.40
2015,06,10,11,21,4.30
2015,06,10,11,22,5.00
2015,06,10,11,23,5.70
2015,06,10,11,24,6.20
2015,06,10,11,25,6.80
2015,06,10,11,26,6.50
2015,06,10,11,27,6.00
2015,06,10,11,28,5.90
2015,06,10,11,29,5.60
2015,06,10,11,30,5.40
2015,06,10,11,31,5.40
2015,06,10,11,32,5.00
2015,06,10,11,33,5.10
2015,06,10,11,34,5.60
2015,06,10,11,35,6.10
2015,06,10,11,36,5.70
2015,06,10,11,37,6.00
2015,06,10,11,38,6.20
2015,06,10,11,39,6.30
2015,06,10,11,40,6.40
2015,06,10,11,41,5.90
2015,06,10,11,42,6.60
2015,06,10,11,43,6.40
2015,06,10,11,44,5.90
2015,06,10,11,45,5.20
2015,06,10,11,46,5.40
2015,06,10,11,47,5.10
2015,06,10,11,48,5.10
2015,06,10,11,49,5.40
2015,06,10,11,50,5.60
2015,06,10,11,51,5.50
2015,06,10,11,52,5.10
2015,06,10,11,53,6.10
2015,06,10,11,54,6.40
2015,06,10,11,55,6.10
2015,06,10,11,56,5.00
2015,06,10,11,57,4.60
2015,06,10,11,58,4.30
2015,06,10,11,59,4.70
2015,06,10,12,00,4.80
2015,06,10,12,01,5.10
2015,06,10,12,02,4.90
2015,06,10,12,03,4.80
2015,06,10,12,04,6.00
2015,06,10,12,05,6.40
2015,06,10,12,06,7.20
2015,06,10,12,07,7.20
2015,06,10,12,08,7.20
2015,06,10,12,09,5.20
2015,06,10,12,10,5.10
2015,06,10,12,11,6.90
2015,06,10,12,12,7.00
2015,06,10,12,13,6.80
2015,06,10,12,14,7.20
2015,06,10,12,15,7.10
2015,06,10,12,16,6.50
2015,06,10,12,17,6.30
2015,06,10,12,18,6.80
2015,06,10,12,19,6.40
2015,06,10,12,20,6.60
2015,06,10,12,21,6.80
2015,06,10,12,22,6.80
2015,06,10,12,23,7.40
2015,06,10,12,24,7.40
2015,06,10,12,25,7.40
2015,06,10,12,26,7.40
2015,06,10,12,27,7.70
2015,06,10,12,28,7.30
2015,06,10,12,29,7.60
2015,06,10,12,30,7.70
2015,06,10,12,31,7.70
2015,06,10,12,32,7.80
2015,06,10,12,33,8.10
2015,06,10,12,34,8.10
2015,06,10,12,35,8.30
2015,06,10,12,36,8.10
2015,06,10,12,37,8.40
2015,06,10,12,38,8.70
2015,06,10,12,39,8.30
2015,06,10,12,40,8.20
2015,06,10,12,41,7.40
2015,06,10,12,42,7.20
2015,06,10,12,43,6.90
2015,06,10,12,44,6.80
2015,06,10,12,45,6.40
2015,06,10,12,46,6.90
2015,06,10,12,47,7.30
2015,06,10,12,48,7.40
2015,06,10,12,49,7.20
2015,06,10,12,50,7.30
2015,06,10,12,51,7.40
2015,06,10,12,52,6.90
2015,06,10,12,53,6.40
2015,06,10,12,54,6.30
2015,06,10,12,55,5.80
2015,06,10,12,56,6.40
2015,06,10,12,57,6.50
2015,06,10,12,58,6.70
2015,06,10,12,59,7.00
2015,06,10,13,00,7.00
2015,06,10,13,01,7.00
2015,06,10,13,02,7.00
2015,06,10,13,03,7.80
2015,06,10,13,04,8.20
2015,06,10,13,05,8.60
2015,06,10,13,06,8.20
2015,06,10,13,07,8.10
2015,06,10,13,08,8.40
2015,06,10,13,09,9.00
2015,06,10,13,10,9.30
2015,06,10,13,11,9.10
2015,06,10,13,12,9.30
2015,06,10,13,13,9.50
2015,06,10,13,14,9.50
2015,06,10,13,15,8.80
2015,06,10,13,16,9.30
2015,06,10,13,17,9.50
2015,06,10,13,18,8.90
2015,06,10,13,19,8.80
2015,06,10,13,20,9.30
2015,06,10,13,21,10.10
2015,06,10,13,22,10.70
2015,06,10,13,23,10.90
2015,06,10,13,24,11.90
2015,06,10,13,25,11.70
2015,06,10,13,26,11.80
2015,06,10,13,27,12.50
2015,06,10,13,28,12.70
2015,06,10,13,29,13.30
2015,06,10,13,30,13.50
2015,06,10,13,31,13.00
2015,06,10,13,32,13.70
2015,06,10,13,33,13.30
2015,06,10,13,34,12.80
2015,06,10,13,35,13.40
2015,06,10,13,36,13.40
2015,06,10,13,37,13.40
2015,06,10,13,38,13.10
2015,06,10,13,39,13.60
2015,06,10,13,40,14.10
2015,06,10,13,41,13.80
2015,06,10,13,42,13.10
2015,06,10,13,43,12.60
2015,06,10,13,44,12.20
2015,06,10,13,45,11.10
2015,06,10,13,46,10.90
2015,06,10,13,47,12.00
2015,06,10,13,48,12.30
2015,06,10,13,49,12.70
2015,06,10,13,50,11.80
2015,06,10,13,51,11.80
2015,06,10,13,52,10.40
2015,06,10,13,53,10.50
2015,06,10,13,54,10.00
2015,06,10,13,55,9.80
2015,06,10,13,56,9.90
2015,06,10,13,57,9.70
2015,06,10,13,58,10.20
2015,06,10,13,59,10.00
2015,06,10,14,00,9.50
2015,06,10,14,01,10.00
2015,06,10,14,02,10.50
2015,06,10,14,03,10.10
2015,06,10,14,04,10.90
2015,06,10,14,05,10.60
2015,06,10,14,06,11.00
2015,06,10,14,07,10.80
2015,06,10,14,08,10.70
2015,06,10,14,09,11.30
2015,06,10,14,10,10.80
2015,06,10,14,11,11.30
2015,06,10,14,12,11.30
2015,06,10,14,13,11.80
2015,06,10,14,14,11.60
2015,06,10,14,15,11.30
2015,06,10,14,16,11.50
2015,06,10,14,17,12.00
2015,06,10,14,18,12.80
2015,06,10,14,19,13.00
2015,06,10,14,20,12.30
2015,06,10,14,21,11.70
2015,06,10,14,22,11.40
2015,06,10,14,23,11.10
2015,06,10,14,24,11.20
2015,06,10,14,25,11.20
2015,06,10,14,26,10.90
2015,06,10,14,27,10.30
2015,06,10,14,28,10.90
2015,06,10,14,29,11.00
2015,06,10,14,30,11.20
2015,06,10,14,31,10.90
2015,06,10,14,32,11.70
2015,06,10,14,33,9.60
2015,06,10,14,34,9.00
2015,06,10,14,35,10.90
2015,06,10,14,36,10.30
2015,06,10,14,37,10.90
2015,06,10,14,38,10.50
2015,06,10,14,39,11.40
2015,06,10,14,40,12.60
2015,06,10,14,41,12.40
2015,06,10,14,42,13.00
2015,06,10,14,43,12.60
2015,06,10,14,44,13.20
2015,06,10,14,45,13.60
2015,06,10,14,46,13.80
2015,06,10,14,47,13.40
2015,06,10,14,48,13.80
2015,06,10,14,49,13.60
2015,06,10,14,50,13.80
2015,06,10,14,51,13.90
2015,06,10,14,52,13.60
2015,06,10,14,53,14.00
2015,06,10,14,54,13.90
2015,06,10,14,55,13.20
2015,06,10,14,56,13.30
2015,06,10,14,57,13.80
2015,06,10,14,58,12.90
2015,06,10,14,59,13.00
2015,06,10,15,00,13.50
2015,06,10,15,01,13.90
2015,06,10,15,02,14.00
2015,06,10,15,03,14.40
2015,06,10,15,04,15.40
2015,06,10,15,05,14.90
2015,06,10,15,06,14.60
2015,06,10,15,07,14.70
2015,06,10,15,08,14.00
2015,06,10,15,09,14.80
2015,06,10,15,10,15.50
2015,06,10,15,11,15.40
2015,06,10,15,12,14.40
2015,06,10,15,13,14.50
2015,06,10,15,14,15.20
2015,06,10,15,15,16.30
2015,06,10,15,16,16.60
2015,06,10,15,17,16.60
2015,06,10,15,18,16.30
2015,06,10,15,19,16.20
2015,06,10,15,20,15.80
2015,06,10,15,21,15.40
2015,06,10,15,22,14.80
2015,06,10,15,23,15.00
2015,06,10,15,24,15.40
2015,06,10,15,25,14.80
2015,06,10,15,26,14.70
2015,06,10,15,27,14.30
2015,06,10,15,28,14.10
2015,06,10,15,29,14.20
2015,06,10,15,30,14.80
2015,06,10,15,31,14.60
2015,06,10,15,32,15.60
2015,06,10,15,33,15.00
2015,06,10,15,34,16.20
2015,06,10,15,35,16.60
2015,06,10,15,36,16.70
2015,06,10,15,37,16.70
2015,06,10,15,38,16.20
2015,06,10,15,39,16.50
2015,06,10,15,40,16.30
2015,06,10,15,41,16.40
2015,06,10,15,42,16.30
2015,06,10,15,43,16.80
2015,06,10,15,44,16.80
2015,06,10,15,45,16.70
2015,06,10,15,46,16.20
2015,06,10,15,47,15.40
2015,06,10,15,48,15.80
2015,06,10,15,49,16.70
2015,06,10,15,50,16.00
2015,06,10,15,51,16.30
2015,06,10,15,52,16.90
2015,06,10,15,53,17.30
2015,06,10,15,54,18.10
2015,06,10,15,55,18.60
2015,06,10,15,56,20.80
2015,06,10,15,57,20.10
2015,06,10,15,58,20.20
2015,06,10,15,59,19.90
2015,06,10,16,00,21.10
2015,06,10,16,01,22.00
2015,06,10,16,02,24.00
2015,06,10,16,03,25.00
2015,06,10,16,04,24.70
2015,06,10,16,05,23.50
2015,06,10,16,06,23.30
2015,06,10,16,07,23.30
2015,06,10,16,08,24.50
2015,06,10,16,09,24.70
2015,06,10,16,10,24.60
2015,06,10,16,11,24.90
2015,06,10,16,12,24.10
2015,06,10,16,13,24.40
2015,06,10,16,14,25.10
2015,06,10,16,15,25.80
2015,06,10,16,16,26.50
2015,06,10,16,17,26.90
2015,06,10,16,18,26.60
2015,06,10,16,19,27.70
2015,06,10,16,20,28.60
2015,06,10,16,21,29.10
2015,06,10,16,22,29.50
2015,06,10,16,23,29.10
2015,06,10,16,24,28.40
2015,06,10,16,25,26.60
2015,06,10,16,26,19.40
2015,06,10,16,27,19.80
2015,06,10,16,28,20.70
2015,06,10,16,29,25.60
2015,06,10,16,30,29.90
2015,06,10,16,31,29.30
2015,06,10,16,32,27.80
2015,06,10,16,33,26.10
2015,06,10,16,34,27.60
2015,06,10,16,35,32.80
2015,06,10,16,36,34.80
2015,06,10,16,37,34.90
2015,06,10,16,38,35.20
2015,06,10,16,39,35.60
2015,06,10,16,40,34.20
2015,06,10,16,41,33.20
2015,06,10,16,42,32.00
2015,06,10,16,43,25.60
2015,06,10,16,44,22.50
2015,06,10,16,45,19.70
2015,06,10,16,46,21.10
2015,06,10,16,47,27.70
2015,06,10,16,48,40.20
2015,06,10,16,49,43.40
2015,06,10,16,50,39.90
2015,06,10,16,51,34.60
2015,06,10,16,52,33.60
2015,06,10,16,53,32.80
2015,06,10,16,54,34.60
2015,06,10,16,55,35.40
2015,06,10,16,56,39.80
2015,06,10,16,57,40.80
2015,06,10,16,58,39.80
2015,06,10,16,59,39.10
2015,06,10,17,00,39.40
2015,06,10,17,01,39.10
2015,06,10,17,02,40.00
2015,06,10,17,03,39.60
2015,06,10,17,04,39.10
2015,06,10,17,05,36.90
2015,06,10,17,06,34.70
2015,06,10,17,07,33.30
2015,06,10,17,08,30.90
2015,06,10,17,09,30.70
2015,06,10,17,10,32.50
2015,06,10,17,11,31.90
2015,06,10,17,12,32.40
2015,06,10,17,13,29.80
2015,06,10,17,14,29.30
2015,06,10,17,15,30.90
2015,06,10,17,16,29.60
2015,06,10,17,17,33.20
2015,06,10,17,18,32.10
2015,06,10,17,19,31.00
2015,06,10,17,20,29.70
2015,06,10,17,21,30.10
2015,06,10,17,22,34.20
2015,06,10,17,23,37.30
2015,06,10,17,24,35.50
2015,06,10,17,25,35.90
2015,06,10,17,26,39.80
2015,06,10,17,27,40.60
2015,06,10,17,28,44.90
2015,06,10,17,29,44.50
2015,06,10,17,30,44.10
2015,06,10,17,31,42.50
2015,06,10,17,32,43.00
2015,06,10,17,33,41.40
2015,06,10,17,34,42.20
2015,06,10,17,35,41.70
2015,06,10,17,36,42.20
2015,06,10,17,37,41.40
2015,06,10,17,38,42.10
2015,06,10,17,39,40.20
2015,06,10,17,40,42.40
2015,06,10,17,41,43.50
2015,06,10,17,42,41.80
2015,06,10,17,43,42.70
2015,06,10,17,44,41.70
2015,06,10,17,45,40.20
2015,06,10,17,46,40.50
2015,06,10,17,47,41.10
2015,06,10,17,48,40.60
2015,06,10,17,49,40.60
2015,06,10,17,50,41.40
2015,06,10,17,51,39.60
2015,06,10,17,52,39.50
2015,06,10,17,53,38.10
2015,06,10,17,54,37.50
2015,06,10,17,55,37.80
2015,06,10,17,56,39.00
2015,06,10,17,57,39.20
2015,06,10,17,58,40.20
2015,06,10,17,59,40.30
2015,06,10,18,00,38.90
2015,06,10,18,01,38.50
2015,06,10,18,02,40.40
2015,06,10,18,03,40.20
2015,06,10,18,04,39.60
2015,06,10,18,05,38.80
2015,06,10,18,06,40.70
2015,06,10,18,07,39.80
2015,06,10,18,08,39.90
2015,06,10,18,09,40.60
2015,06,10,18,10,41.80
2015,06,10,18,11,40.30
2015,06,10,18,12,40.50
2015,06,10,18,13,41.10
2015,06,10,18,14,40.60
2015,06,10,18,15,38.90
2015,06,10,18,16,40.50
2015,06,10,18,17,40.70
2015,06,10,18,18,40.20
2015,06,10,18,19,38.50
2015,06,10,18,20,37.20
2015,06,10,18,21,39.30
2015,06,10,18,22,38.00
2015,06,10,18,23,37.30
2015,06,10,18,24,36.80
2015,06,10,18,25,36.80
2015,06,10,18,26,37.00
2015,06,10,18,27,36.30
2015,06,10,18,28,37.30
2015,06,10,18,29,36.30
2015,06,10,18,30,36.00
2015,06,10,18,31,35.10
2015,06,10,18,32,34.40
2015,06,10,18,33,33.80
2015,06,10,18,34,31.60
2015,06,10,18,35,31.10
2015,06,10,18,36,30.30
2015,06,10,18,37,29.70
2015,06,10,18,38,29.30
2015,06,10,18,39,29.60
2015,06,10,18,40,30.70
2015,06,10,18,41,33.50
2015,06,10,18,42,35.60
2015,06,10,18,43,34.20
2015,06,10,18,44,33.80
2015,06,10,18,45,36.40
2015,06,10,18,46,39.00
2015,06,10,18,47,42.70
2015,06,10,18,48,42.30